Content
SEND FEEDBACK

Daily
Averages
Monthly
Summary
United States of America

CAPULIN VOLCANO NATIONAL MONUMENT, NEW MEXICO


Home > North America > United States > New Mexico
Elevation: 7290 feet     Latitude: 36 47N     Longitude: 103 58W

WEATHER
 
SELECT A DAY
Number of Records: 151,818;   Date Range: 8/27/98 - 7/20/14
 
SHARE

PRINT THIS DATA

[ ← Previous Day ]
WEATHER ALMANAC - FEBRUARY 13, 2013
[ Next Day → ]
[ °C ]   °F
Weather ElementAverageHighLow
Temperature28.3 °F48.9 °F (1:53 pm)8.1 °F (4:53 am)
Dewpoint5.4 °F9 °F (6:53 pm) (7:00 pm)
Humidity42.9 %70 % (3:53 am)19 % (1:53 pm)
Barometer30.03 in30.13 in (6:53 am)29.91 in (2:53 pm)
Wind Speed5.6 mph9.2 mph (8:53 am)
Wind Gust17.3 mph (12:53 pm)
Weather ElementAverage
Visibility10 mi
Wind DirectionESE (113.9 °)

Weather ElementTotal
Precipitation---
Heating Degree Days36.5 (Base 65)
Averaged from 23 records on February 13, 2013
WEATHER CONDITIONS BREAKOUT
WIND DIRECTION BREAKOUT
WEATHER BY HOUR - FEBRUARY 13, 2013
[ °C ]   °F
Local TimeTemperatureDewpointHumidityBarometerVisibilityWind DirectionWind SpeedGust SpeedPrecipitationEventsConditions
1:53 AM10.9 °F1.0 °F64 %30.08 in10.0 miENE (60°)5.8 mphClear
2:53 AM10.9 °F1.0 °F64 %30.06 in10.0 miCalmClear
3:53 AM9.0 °F1.0 °F70 %30.06 in10.0 miNE (40°)6.9 mphClear
4:53 AM8.1 °F0.0 °F70 %30.08 in10.0 miEast (80°)8.1 mphClear
5:53 AM10.0 °F1.0 °F67 %30.11 in10.0 miNE (50°)4.6 mphClear
6:53 AM10.0 °F1.9 °F70 %30.13 in10.0 miNNE (20°)6.9 mphClear
7:53 AM16.0 °F3.9 °F59 %30.11 in10.0 miENE (60°)6.9 mphClear
8:53 AM26.1 °F6.1 °F43 %30.09 in10.0 miENE (60°)9.2 mphClear
9:53 AM34.0 °F5.0 °F30 %30.05 in10.0 miENE (70°)5.8 mphClear
10:53 AM39.9 °F3.9 °F22 %30.03 in10.0 miCalmClear
11:53 AM44.1 °F7.0 °F22 %29.98 in10.0 miSouth (180°)8.1 mphClear
12:53 PM46.0 °F7.0 °F20 %29.94 in10.0 miSSW (200°)9.2 mph17.3 mphClear
1:53 PM48.9 °F8.1 °F19 %29.92 in10.0 miSSW (200°)8.1 mphClear
2:53 PM46.9 °F7.0 °F20 %29.91 in10.0 miSSE (150°)6.9 mphClear
3:53 PM46.9 °F8.1 °F21 %29.94 in10.0 miSSW (210°)5.8 mphClear
4:53 PM43.0 °F8.1 °F24 %29.98 in10.0 miSW (220°)4.6 mphClear
5:53 PM35.1 °F7.0 °F31 %30.03 in10.0 miWest (270°)4.6 mphClear
6:53 PM32.0 °F9.0 °F38 %30.06 in10.0 miNNW (330°)6.9 mphClear
7:53 PM36.0 °F8.1 °F31 %30.03 in10.0 miCalmClear
8:53 PM26.1 °F7.0 °F44 %30.05 in10.0 miNNE (30°)4.6 mphClear
9:53 PM26.1 °F8.1 °F47 %30.02 in10.0 miNW (320°)5.8 mphClear
10:53 PM21.0 °F7.0 °F55 %30.02 in10.0 miNorth (10°)3.5 mphClear
11:53 PM23.0 °F9.0 °F55 %30.01 in10.0 miENE (60°)5.8 mphClear
Hourly data recorded from KRTN, located miles away from Capulin Volcano National Monument, New Mexico







STORIES FROM OUR PARTNERS